Weather History for Roswell, NM

Change the Weather History Date:

Monday, November 19, 2012

  Actual Average Record
Temperature  
Mean Temperature 57 °F 48 °F  
Max Temperature 74 °F 63 °F 88 °F (1996)
Min Temperature 40 °F 33 °F 13 °F (1921)
Degree Days  
Heating Degree Days 8 17  
Month to date heating degree days 189 258  
Since 1 July heating degree days 316 432  
Cooling Degree Days 0 0  
Month to date cooling degree days 0 0  
Year to date cooling degree days 2356 1788  
Growing Degree Days 7 (Base 50)    
Moisture  
Dew Point 37 °F    
Average Humidity 58    
Maximum Humidity 100    
Minimum Humidity 16    
Precipitation  
Precipitation 0.00 in 0.01 in 2.54 in (1899)
Month to date precipitation 0.05 0.40  
Year to date precipitation 6.10 12.09  
Sea Level Pressure  
Sea Level Pressure 30.13 in    
Wind  
Wind Speed 5 mph (WNW)    
Max Wind Speed 16 mph    
Max Gust Speed 22 mph    
Visibility 6 miles    
Events Fog    
T = Trace of Precipitation, MM = Missing Value Source: NWS Daily Summary

Daily Weather History Graph

Daily Weather History Graph

Search for Another Location

Airport:

Trip Planner

Search our weather history database for the weather conditions in past years. The results will help you decide how hot, cold, wet, or windy it might be!

Date:

Astronomy

Nov. 19, 2012 Rise Set
Actual Time 6:33 AM MST 4:53 PM MST
Civil Twilight 6:06 AM MST 5:20 PM MST
Nautical Twilight 5:36 AM MST 5:50 PM MST
Astronomical Twilight 5:07 AM MST 6:19 PM MST
Moon 11:44 AM MST 11:14 PM MST
Length of Visible Light 11h 13m
Length of Day
10h 20m
Waxing Crescent, 41% of the Moon is Illuminated
Nov 19
Waxing Crescent
Nov 20
First Quarter
Nov 28
Full
Dec 6
Last Quarter
Dec 13
New

Hourly Weather History & Observations

Time (MST) Temp. Windchill Dew Point Humidity Pressure Visibility Wind Dir Wind Speed Gust Speed Precip Events Conditions
12:03 AM 41.0 °F 37.1 °F 41.0 °F 100% 30.16 in 3.0 mi SSW 5.8 mph - N/A   Clear
12:51 AM 43.0 °F 41.3 °F 41.0 °F 93% 30.08 in 10.0 mi West 3.5 mph - N/A   Clear
1:36 AM 41.0 °F 38.0 °F 39.2 °F 93% 30.16 in 3.0 mi WNW 4.6 mph - N/A   Partly Cloudy
1:51 AM 41.0 °F 38.0 °F 39.9 °F 96% 30.10 in 2.0 mi WNW 4.6 mph - N/A   Scattered Clouds
1:57 AM 41.0 °F 38.0 °F 41.0 °F 100% 30.17 in 3.0 mi North 4.6 mph - N/A   Mostly Cloudy
2:00 AM 41.0 °F 39.0 °F 39.2 °F 93% 30.17 in 1.8 mi NNW 3.5 mph - N/A   Mostly Cloudy
2:07 AM 41.0 °F - 41.0 °F 100% 30.17 in 0.2 mi Calm Calm - N/A Fog Fog
2:51 AM 41.0 °F - 41.0 °F 100% 30.10 in 0.2 mi Calm Calm - N/A Fog Fog
3:12 AM 41.0 °F - 41.0 °F 100% 30.17 in 0.2 mi Calm Calm - N/A Fog Fog
3:34 AM 42.8 °F - 42.8 °F 100% 30.17 in 0.2 mi Calm Calm - N/A Fog Fog
3:51 AM 43.0 °F 41.3 °F 42.1 °F 97% 30.09 in 0.2 mi North 3.5 mph - N/A Fog Fog
4:51 AM 45.0 °F 42.6 °F 44.1 °F 97% 30.11 in 0.2 mi NE 4.6 mph - N/A Fog Fog
5:51 AM 43.0 °F - 43.0 °F 100% 30.12 in 0.2 mi Calm Calm - N/A Fog Fog
6:51 AM 42.1 °F 39.2 °F 42.1 °F 100% 30.15 in 0.2 mi West 4.6 mph - N/A Fog Fog
7:18 AM 41.0 °F 39.0 °F 39.2 °F 93% 30.22 in 1.0 mi West 3.5 mph - N/A   Mist
7:25 AM 41.0 °F 39.0 °F 39.2 °F 93% 30.22 in 3.0 mi West 3.5 mph - N/A   Mostly Cloudy
7:34 AM 41.0 °F - 41.0 °F 100% 30.22 in 6.0 mi Calm Calm - N/A   Partly Cloudy
7:51 AM 42.1 °F - 42.1 °F 100% 30.17 in 9.0 mi Calm Calm - N/A   Clear
8:51 AM 51.1 °F - 46.9 °F 86% 30.17 in 10.0 mi South 3.5 mph - N/A   Clear
9:51 AM 57.0 °F - 48.0 °F 72% 30.18 in 10.0 mi SSE 3.5 mph - N/A   Clear
10:51 AM 64.9 °F - 44.1 °F 47% 30.14 in 10.0 mi NW 3.5 mph - N/A   Clear
11:51 AM 71.1 °F - 37.0 °F 29% 30.10 in 10.0 mi North 6.9 mph - N/A   Clear
12:51 PM 73.0 °F - 26.1 °F 17% 30.06 in 10.0 mi NW 15.0 mph 21.9 mph N/A   Clear
1:51 PM 73.0 °F - 26.1 °F 17% 30.05 in 10.0 mi NW 11.5 mph - N/A   Clear
2:51 PM 73.9 °F - 25.0 °F 16% 30.04 in 10.0 mi West 8.1 mph - N/A   Clear
3:51 PM 72.0 °F - 27.0 °F 19% 30.05 in 10.0 mi NW 9.2 mph - N/A   Clear
4:51 PM 66.9 °F - 28.0 °F 23% 30.08 in 10.0 mi NW 4.6 mph - N/A   Clear
5:51 PM 59.0 °F - 30.0 °F 33% 30.12 in 10.0 mi SSE 3.5 mph - N/A   Clear
6:51 PM 55.0 °F - 30.0 °F 38% 30.14 in 10.0 mi West 4.6 mph - N/A   Clear
7:51 PM 55.0 °F - 33.1 °F 43% 30.16 in 10.0 mi West 8.1 mph - N/A   Clear
8:51 PM 53.1 °F - 32.0 °F 45% 30.15 in 10.0 mi West 6.9 mph - N/A   Clear
9:51 PM 50.0 °F - 32.0 °F 50% 30.15 in 10.0 mi Calm Calm - N/A   Clear
10:51 PM 48.9 °F - 32.0 °F 52% 30.14 in 10.0 mi NNE 4.6 mph - N/A   Clear
11:51 PM 46.9 °F - 30.9 °F 54% 30.14 in 10.0 mi Calm Calm - N/A   Clear